[[{"header":{"parameterUnit":"m.s-1","parameterCategory":1,"la1":30.2991,"la2":30.254,"lo1":-89.0895,"lo2":-89.0444,"dy":0.0017,"dx":0.0017,"nx":28,"ny":28,"refTime":"2025-06-13T09:00:00:Z","depth":0,"parameterNumber":2,"parameterNumberName":"U-component_of_WINDS"},"data":[0,0,0,0,0,0,0,0,0,0,0,0,0,0,0,0,0,0,0,0,0,0,0,0,0,0,0,0,0,0,0,0,0,0,0,0,0,0,0,0,0,0,0,0,0,0,0,0,0,0,0,0,0,0,0,0,0,0,-3.2078,-3.2079,0,-3.2144,-3.2145,-3.2146,-3.2141,-3.214,-3.2139,-3.2138,-3.2205,-3.2208,-3.221,0,0,0,0,0,0,0,0,0,0,0,0,0,-3.1947,-3.195,-3.2078,-3.2079,-3.208,-3.2144,-3.2145,-3.2146,-3.2141,-3.214,-3.2139,-3.2138,-3.2204,-3.2207,-3.2211,0,0,0,0,0,0,0,0,0,0,0,0,0,-3.2008,-3.1951,-3.2078,-3.2085,-3.2087,-3.2144,-3.2145,-3.2146,-3.2142,-3.214,-3.2139,-3.2137,-3.2203,-3.2207,-3.2211,-3.2265,0,0,-3.2223,-3.2225,0,0,0,0,0,0,0,0,-3.2005,-3.2013,-3.2083,-3.2085,-3.2086,-3.2133,-3.2124,-3.2186,-3.2142,-3.2121,-3.2138,-3.2137,-3.2182,-3.2188,-3.2203,-3.2268,-3.2271,-3.2224,-3.2226,-3.2228,-3.2229,0,0,0,0,0,0,0,-3.2,-3.201,-3.2104,-3.2084,-3.2086,-3.2085,-3.2092,-3.2135,-3.2159,-3.2122,-3.2122,-3.213,-3.2183,-3.22,-3.2205,-3.2272,-3.2224,-3.2227,-3.223,-3.2231,-3.2384,-3.2386,0,0,0,0,0,0,-3.1995,-3.2006,-3.2102,-3.2106,-3.2041,-3.2089,-3.2096,-3.212,-3.2158,-3.2163,-3.2131,-3.213,-3.2193,-3.22,-3.2207,-3.2272,-3.2228,-3.2232,-3.2234,-3.2383,-3.2385,-3.2387,0,0,0,0,0,0,-3.1992,-3.2003,-3.21,-3.2056,-3.2069,-3.2093,-3.2118,-3.2122,-3.2138,-3.2165,-3.2169,-3.2144,-3.2193,-3.2202,-3.2251,-3.2275,-3.2233,-3.2237,-3.2381,-3.2383,-3.2386,-3.2404,0,0,0,0,0,0,-3.1988,-3.2002,-3.2023,-3.2057,-3.2071,-3.2142,-3.212,-3.2124,-3.2145,-3.2144,-3.2178,-3.2183,-3.2192,-3.2245,-3.2255,-3.2279,-3.224,-3.2379,-3.2382,-3.2385,-3.2401,-3.2406,-3.2411,0,0,0,0,0,-3.1983,-3.2025,-3.2024,-3.2036,-3.2097,-3.2143,-3.2151,-3.2162,-3.2147,-3.2168,-3.2186,-3.2181,-3.2271,-3.225,-3.2261,-3.2287,-3.2377,-3.2381,-3.2385,-3.2399,-3.2405,-3.2411,0,0,0,0,0,0,-3.1993,-3.203,-3.2029,-3.2083,-3.211,-3.2143,-3.2169,-3.2169,-3.22,-3.2197,-3.2209,-3.2217,-3.2266,-3.2282,-3.2258,-3.2342,-3.2322,-3.2328,-3.2329,-3.2336,-3.2341,-3.2335,-3.2244,0,0,0,0,0,-3.2002,-3.2036,-3.2066,-3.2111,-3.2125,-3.2145,-3.2165,-3.2171,-3.22,-3.2211,-3.2232,-3.2259,-3.2294,-3.2316,-3.2349,-3.2404,-3.2411,-3.2428,-3.2433,-3.2437,-3.2441,-3.2471,-3.2478,-3.2399,-3.2399,-3.2399,0,0,-3.2019,-3.2044,-3.2064,-3.2114,-3.2135,-3.217,-3.2154,-3.2192,-3.2218,-3.2217,-3.2264,-3.2281,-3.2312,-3.2364,-3.2388,-3.2379,-3.2465,-3.2442,-3.2445,-3.2447,-3.2476,-3.2483,-3.249,-3.2401,-3.2401,-3.2401,0,0,-3.2069,-3.2091,-3.2131,-3.2153,-3.2186,-3.22,-3.2209,-3.2242,-3.2253,-3.2301,-3.2301,-3.2332,-3.2391,-3.2413,-3.2432,-3.2492,-3.2489,-3.2503,-3.2528,-3.2557,-3.2563,-3.2569,-3.2589,-3.2596,-3.2507,-3.2508,-3.2508,0,-3.2086,-3.2139,-3.2151,-3.2189,-3.221,-3.2212,-3.2251,-3.2273,-3.2315,-3.233,-3.2319,-3.2393,-3.2415,-3.2472,-3.2486,-3.2503,-3.2513,-3.2497,-3.2561,-3.2567,-3.2572,-3.2591,-3.2599,-3.2509,-3.2509,-3.2509,-3.2508,0,-3.2158,-3.2195,-3.2223,-3.2264,-3.2289,-3.2328,-3.2346,-3.2369,-3.2374,-3.2388,-3.2437,-3.2463,-3.2501,-3.2516,-3.252,-3.2573,-3.2567,-3.2559,-3.2539,-3.2581,-3.2599,-3.2607,-3.2511,-3.251,-3.251,-3.251,0,0,-3.2214,-3.2262,-3.2272,-3.229,-3.2328,-3.2356,-3.2396,-3.2434,-3.2453,-3.2483,-3.2515,-3.2566,-3.2559,-3.2581,-3.2588,-3.2614,-3.2658,-3.2603,-3.2604,-3.2611,-3.2717,-3.2721,-3.2729,-3.2657,-3.2659,-3.266,-3.2714,0,-3.2266,-3.2335,-3.2347,-3.2407,-3.2441,-3.2444,-3.2478,-3.2504,-3.2519,-3.255,-3.2567,-3.2602,-3.2591,-3.2604,-3.2629,-3.2647,-3.2679,-3.2644,-3.2686,-3.2687,-3.2676,-3.2739,-3.2744,-3.2793,-3.2721,-3.2722,-3.2723,0,-3.2335,-3.2367,-3.2431,-3.2464,-3.2478,-3.2509,-3.2544,-3.2574,-3.2605,-3.2614,-3.2639,-3.2643,-3.2683,-3.2664,-3.2719,-3.2695,-3.2713,-3.2725,-3.2727,-3.2729,-3.2706,-3.2742,-3.2809,-3.2816,-3.2735,-3.2734,-3.2733,0,-3.2368,-3.2426,-3.2472,-3.2488,-3.2528,-3.2549,-3.2567,-3.2596,-3.2618,-3.2649,-3.2664,-3.27,-3.2719,-3.2746,-3.276,-3.2745,-3.2814,-3.2796,-3.2822,-3.2821,-3.2834,-3.2833,-3.2904,-3.285,-3.285,-3.2849,-3.2849,0,-3.2423,-3.2462,-3.2487,-3.2514,-3.2558,-3.2572,-3.2614,-3.2631,-3.2658,-3.2688,-3.2694,-3.2722,-3.274,-3.2772,-3.2783,-3.2826,-3.2836,-3.2843,-3.2845,-3.2842,-3.284,-3.2852,-3.2848,-3.2851,-3.2851,-3.2851,-3.285,0,-3.2465,-3.2484,-3.2533,-3.2568,-3.2577,-3.2607,-3.2637,-3.2664,-3.2679,-3.2718,-3.2728,-3.2752,-3.279,-3.2807,-3.2853,-3.2861,-3.291,-3.2911,-3.2899,-3.29,-3.2924,-3.2921,-3.3004,-3.3015,-3.2955,-3.2956,-3.2956,0,-3.2499,-3.2528,-3.2566,-3.2587,-3.2605,-3.264,-3.2662,-3.2678,-3.2701,-3.2739,-3.2761,-3.2799,-3.2829,-3.2889,-3.291,-3.2946,-3.2946,-3.2973,-3.2951,-3.2947,-3.2945,-3.2942,-3.2944,-3.2976,-3.2977,-3.2977,-3.2977,0,-3.2555,-3.2563,-3.2596,-3.2632,-3.2658,-3.2687,-3.2716,-3.2733,-3.2753,-3.2779,-3.2818,-3.2842,-3.2889,-3.2926,-3.2963,-3.2981,-3.2982,-3.2985,-3.2992,-3.2987,-3.2979,-3.2982,-3.2908,-3.2982,-3.2981,-3.2981,-3.2981,-3.2981,-3.2593,-3.2619,-3.265,-3.2686,-3.2709,-3.2736,-3.2762,-3.2782,-3.2814,-3.2854,-3.2862,-3.2902,-3.2932,-3.2982,-3.3002,-3.3033,-3.3027,-3.3038,-3.3041,-3.3043,-3.3043,-3.2976,-3.304,-3.304,-3.304,-3.304,-3.304,0,-3.2648,-3.2669,-3.2702,-3.2741,-3.277,-3.277,-3.2801,-3.2825,-3.2861,-3.2889,-3.2919,-3.2963,-3.3,-3.3024,-3.3061,-3.3082,-3.3083,-3.309,-3.3088,-3.3092,-3.3048,-3.3037,-3.3089,-3.3089,-3.3089,-3.3089,-3.3089,-3.3089,-3.268,-3.2724,-3.2736,-3.2792,-3.2812,-3.2851,-3.2869,-3.2894,-3.2916,-3.2965,-3.2996,-3.3012,-3.3039,-3.3077,-3.3111,-3.3117,-3.3129,-3.3137,-3.3143,-3.31,-3.3095,-3.309,-3.308,-3.314,-3.314,-3.3184,-3.3184,-3.3185]},{"header":{"parameterUnit":"m.s-1","parameterCategory":1,"la1":30.2991,"la2":30.254,"lo1":-89.0895,"lo2":-89.0444,"dy":0.0017,"dx":0.0017,"nx":28,"ny":28,"refTime":"2025-06-13T09:00:00:Z","depth":0,"parameterNumber":3,"parameterNumberName":"V-component_of_WINDS"},"data":[0,0,0,0,0,0,0,0,0,0,0,0,0,0,0,0,0,0,0,0,0,0,0,0,0,0,0,0,0,0,0,0,0,0,0,0,0,0,0,0,0,0,0,0,0,0,0,0,0,0,0,0,0,0,0,0,0,0,4.9034,4.9034,0,4.9019,4.9019,4.9018,4.8921,4.8919,4.8916,4.8914,4.8899,4.8901,4.8903,0,0,0,0,0,0,0,0,0,0,0,0,0,4.8981,4.8982,4.9034,4.9034,4.9034,4.9019,4.9019,4.9018,4.8922,4.8919,4.8916,4.8913,4.8899,4.8901,4.8903,0,0,0,0,0,0,0,0,0,0,0,0,0,4.8989,4.8983,4.9035,4.8984,4.8979,4.9019,4.9019,4.9018,4.8922,4.8919,4.8915,4.8912,4.8898,4.8901,4.8903,4.8991,0,0,4.8912,4.8913,0,0,0,0,0,0,0,0,4.8988,4.8991,4.8992,4.8987,4.8982,4.8968,4.8994,4.9009,4.8923,4.8944,4.8914,4.891,4.8925,4.8926,4.893,4.899,4.899,4.8912,4.8914,4.8915,4.8915,0,0,0,0,0,0,0,4.8988,4.8991,4.9028,4.8992,4.8986,4.8962,4.8959,4.8997,4.8955,4.8942,4.8935,4.8934,4.8922,4.8928,4.8929,4.8989,4.8912,4.8914,4.8916,4.8917,4.9119,4.9122,0,0,0,0,0,0,4.8994,4.8991,4.9029,4.9028,4.8977,4.8966,4.8963,4.8976,4.8954,4.8947,4.8937,4.893,4.8925,4.8926,4.8928,4.9028,4.8915,4.8917,4.8919,4.9115,4.9119,4.9123,0,0,0,0,0,0,4.8994,4.8999,4.9029,4.9008,4.901,4.8971,4.8987,4.8978,4.8984,4.895,4.8943,4.8951,4.8922,4.8925,4.8976,4.9026,4.8918,4.8921,4.9111,4.9116,4.9121,4.9228,0,0,0,0,0,0,4.8993,4.8999,4.9032,4.9009,4.9011,4.9077,4.899,4.898,4.8988,4.8979,4.8961,4.8955,4.892,4.8972,4.8978,4.9028,4.8923,4.9106,4.9113,4.912,4.922,4.9237,4.9251,0,0,0,0,0,4.8991,4.9063,4.9034,4.9039,4.9051,4.908,4.9081,4.9039,4.8993,4.9025,4.9004,4.8955,4.902,4.8978,4.8984,4.9035,4.9102,4.9111,4.9119,4.9213,4.9233,4.9251,0,0,0,0,0,0,4.9093,4.9059,4.9026,4.9093,4.909,4.9064,4.9103,4.9062,4.9073,4.9063,4.901,4.9007,4.9066,4.9056,4.901,4.9118,4.9053,4.9063,4.9122,4.9141,4.9156,4.9157,4.8925,0,0,0,0,0,4.9124,4.915,4.9119,4.9181,4.9181,4.9143,4.9154,4.9121,4.9116,4.9114,4.9097,4.9094,4.9113,4.9127,4.9143,4.9219,4.9213,4.9257,4.9272,4.9285,4.9294,4.9332,4.935,4.9151,4.9151,4.9151,0,0,4.9187,4.9171,4.9191,4.9201,4.9194,4.9222,4.9142,4.9175,4.9195,4.912,4.9166,4.9153,4.9146,4.921,4.9237,4.9203,4.9348,4.9296,4.9307,4.9308,4.9342,4.9361,4.9378,4.9157,4.9156,4.9155,0,0,4.9315,4.9307,4.9356,4.9352,4.9343,4.9317,4.9329,4.9309,4.9297,4.9343,4.9286,4.931,4.9344,4.9341,4.9345,4.9472,4.9427,4.9479,4.9559,4.9597,4.9612,4.9626,4.967,4.9686,4.9488,4.9488,4.9488,0,4.9394,4.9433,4.9387,4.9423,4.9429,4.9362,4.9411,4.9409,4.9407,4.9412,4.9375,4.9416,4.9407,4.9468,4.9499,4.9505,4.9516,4.9479,4.9614,4.9627,4.9639,4.968,4.9697,4.9494,4.9494,4.9493,4.9493,0,4.953,4.9558,4.96,4.9598,4.9608,4.9652,4.9612,4.9628,4.9595,4.9574,4.9621,4.9608,4.9619,4.9632,4.96,4.9688,4.9667,4.9623,4.9556,4.9665,4.9702,4.9718,4.9503,4.9501,4.9499,4.9498,0,0,4.9721,4.9693,4.9709,4.9706,4.9692,4.9713,4.9753,4.9764,4.9778,4.9779,4.9811,4.9842,4.98,4.9804,4.9772,4.9805,4.9905,4.9756,4.9755,4.9783,4.9999,5.003,5.0049,4.9876,4.9879,4.9881,4.9999,0,4.9842,4.9908,4.9867,4.9939,4.9964,4.99,4.9935,4.993,4.9911,4.993,4.9909,4.9931,4.9875,4.9877,4.9907,4.9886,4.9947,4.9878,4.9904,4.9905,4.9905,5.0069,5.0103,5.0215,5.0013,5.0016,5.0017,0,4.9992,4.9998,5.0072,5.0052,5.0061,5.0092,5.0098,5.0117,5.011,5.0094,5.0098,5.0058,5.0095,5.0031,5.0082,5.0036,5.0044,5.0036,5.0039,5.0038,4.9966,5.0071,5.0249,5.0265,5.004,5.0039,5.0037,0,5.0121,5.0149,5.0196,5.0196,5.0174,5.0198,5.019,5.0179,5.0188,5.0194,5.0198,5.0209,5.0215,5.0224,5.0188,5.0144,5.0243,5.0176,5.023,5.0231,5.0251,5.025,5.0432,5.0261,5.0261,5.0261,5.026,0,5.026,5.0307,5.0253,5.0282,5.0333,5.0287,5.0339,5.0324,5.0315,5.034,5.0287,5.0312,5.0263,5.0283,5.0255,5.03,5.0304,5.0291,5.0283,5.0295,5.0296,5.0298,5.0289,5.0265,5.0264,5.0263,5.0262,0,5.0412,5.0378,5.0425,5.04,5.0395,5.0433,5.0412,5.0437,5.0415,5.0447,5.0452,5.0417,5.0438,5.0403,5.0419,5.04,5.0463,5.0444,5.0465,5.0459,5.0514,5.0508,5.0701,5.0723,5.0541,5.0543,5.0544,0,5.0501,5.0535,5.0514,5.0526,5.0521,5.0542,5.055,5.0507,5.0517,5.0512,5.0538,5.0554,5.0564,5.06,5.0576,5.0589,5.0568,5.0635,5.0569,5.058,5.0566,5.0564,5.0567,5.0648,5.065,5.0652,5.0653,0,5.0662,5.0644,5.0657,5.0665,5.0676,5.068,5.0681,5.0694,5.0648,5.0663,5.0682,5.069,5.0707,5.0723,5.0729,5.0721,5.068,5.0674,5.0687,5.0698,5.0708,5.0701,5.0499,5.0669,5.0668,5.0667,5.0666,5.0665,5.0784,5.0811,5.08,5.0816,5.0812,5.0814,5.0836,5.0816,5.0831,5.084,5.0814,5.084,5.0832,5.0836,5.0833,5.0852,5.0823,5.0842,5.0846,5.0851,5.0859,5.0707,5.0854,5.0853,5.0853,5.0852,5.0852,0,5.0941,5.093,5.0946,5.0948,5.0961,5.092,5.0918,5.0932,5.0955,5.0951,5.0962,5.0984,5.1,5.0977,5.0989,5.1009,5.099,5.1013,5.101,5.1009,5.0886,5.0872,5.1028,5.1028,5.1028,5.1028,5.1028,5.1028,5.1024,5.1067,5.1047,5.1087,5.1076,5.11,5.1103,5.1104,5.11,5.1127,5.1139,5.1124,5.1113,5.1123,5.1135,5.1128,5.1134,5.1164,5.115,5.1035,5.1018,5.1001,5.0988,5.1166,5.1167,5.1272,5.1273,5.1273]}]]